New Braunfels, TX

5:35 PM CDT on April 28, 2017 (GMT -0500)
New Braunfels Municipal

Weather History for KBAZ - November, 2013

Change the Weather History Date:

Sunday, November 24, 2013

  Actual Average (KRND) Record (KRND)
Temperature  
Mean Temperature 39 °F -  
Max Temperature 43 °F 66 °F 84 °F (2010)
Min Temperature 35 °F 48 °F 26 °F (2003)
Degree Days  
Heating Degree Days 26    
Moisture  
Dew Point 35 °F    
Average Humidity 89    
Maximum Humidity 100    
Minimum Humidity 62    
Precipitation  
Precipitation 0.25 in - - ()
Sea Level Pressure  
Sea Level Pressure 30.37 in    
Wind  
Wind Speed 14 mph (NNE)    
Max Wind Speed 20 mph    
Max Gust Speed 28 mph    
Visibility 8 miles    
Events Rain    
Averages and records for this station are not official NWS values.
T = Trace of Precipitation, MM = Missing Value Source: NWS Daily Summary

Daily Weather History Graph

Daily Weather History Graph

Search for Another Location

Airport or City:

Trip Planner

Search our weather history database for the weather conditions in past years. The results will help you decide how hot, cold, wet, or windy it might be!

Date:

Astronomy

Nov. 24, 2013 Rise Set
Actual Time 7:04 AM CST 5:33 PM CST
Civil Twilight 6:38 AM CST 5:59 PM CST
Nautical Twilight 6:09 AM CST 6:28 PM CST
Astronomical Twilight 5:40 AM CST 6:56 PM CST
Moon 11:46 PM CST (11/24) 12:05 PM CST (11/24)
Length of Visible Light 11h 20m
Length of Day
10h 29m
Waning Gibbous, 60% of the Moon is Illuminated
Nov 24
Waning Gibbous
Nov 25
Last Quarter
Dec 2
New
Dec 9
First Quarter
Dec 17
Full

Hourly Weather History & Observations

Time (CST) Temp. Windchill Dew Point Humidity Pressure Visibility Wind Dir Wind Speed Gust Speed Precip Events Conditions
12:51 AM 43.0 °F 34.8 °F 39.0 °F 86% 30.39 in 10.0 mi NNE 18.4 mph - N/A   Overcast
1:51 AM 43.0 °F 35.4 °F 37.9 °F 82% 30.38 in 10.0 mi NNE 16.1 mph - N/A   Overcast
2:51 AM 43.0 °F 36.4 °F 37.0 °F 80% 30.40 in 10.0 mi North 12.7 mph - N/A   Overcast
3:51 AM 43.0 °F 35.4 °F 36.0 °F 76% 30.39 in 10.0 mi NNE 16.1 mph 23.0 mph N/A   Overcast
4:51 AM 43.0 °F 36.0 °F 35.1 °F 74% 30.41 in 10.0 mi NNE 13.8 mph 23.0 mph N/A   Overcast
5:51 AM 43.0 °F 35.1 °F 34.0 °F 71% 30.40 in 10.0 mi NNE 17.3 mph 24.2 mph N/A   Overcast
6:51 AM 42.1 °F 33.6 °F 33.1 °F 70% 30.43 in 10.0 mi NNE 18.4 mph 25.3 mph N/A   Overcast
7:51 AM 42.1 °F 34.5 °F 30.9 °F 65% 30.42 in 10.0 mi NNE 15.0 mph 23.0 mph N/A   Overcast
8:51 AM 42.1 °F 34.9 °F 30.0 °F 62% 30.48 in 10.0 mi North 13.8 mph - N/A   Overcast
9:11 AM 39.2 °F 31.6 °F 32.0 °F 75% 30.44 in 1.5 mi NNE 12.7 mph 23.0 mph 0.03 in Rain Rain
9:37 AM 37.4 °F 28.5 °F 35.6 °F 93% 30.43 in 4.0 mi NNE 15.0 mph - 0.07 in Rain Rain
9:51 AM 39.0 °F 31.0 °F 35.1 °F 86% 30.45 in 10.0 mi NNE 13.8 mph 20.7 mph 0.07 in Rain Light Rain
10:51 AM 37.9 °F 30.0 °F 35.1 °F 89% 30.47 in 10.0 mi North 12.7 mph - 0.00 in Rain Light Rain
11:51 AM 37.0 °F 27.0 °F 35.1 °F 93% 30.42 in 7.0 mi NNE 18.4 mph 26.5 mph 0.00 in Rain Light Rain
12:12 PM 37.4 °F 29.3 °F 35.6 °F 93% 30.41 in 10.0 mi NNE 12.7 mph 20.7 mph 0.00 in   Overcast
12:35 PM 37.4 °F 28.2 °F 35.6 °F 93% 30.39 in 10.0 mi NNE 16.1 mph - 0.00 in   Overcast
12:51 PM 37.9 °F 27.9 °F 35.1 °F 89% 30.38 in 10.0 mi NNE 19.6 mph 27.6 mph 0.00 in   Overcast
1:49 PM 37.4 °F 29.8 °F 35.6 °F 93% 30.36 in 10.0 mi NNE 11.5 mph - 0.00 in Rain Light Rain
1:51 PM 37.9 °F 29.6 °F 36.0 °F 93% 30.36 in 9.0 mi NNE 13.8 mph - 0.00 in Rain Light Rain
2:35 PM 37.4 °F 29.3 °F 35.6 °F 93% 30.35 in 7.0 mi NNE 12.7 mph - 0.00 in Rain Light Rain
2:51 PM 37.9 °F 30.5 °F 36.0 °F 93% 30.36 in 10.0 mi NNE 11.5 mph - 0.00 in   Overcast
3:51 PM 37.9 °F 30.9 °F 36.0 °F 93% 30.35 in 10.0 mi NNE 10.4 mph - N/A   Overcast
4:51 PM 37.9 °F 30.5 °F 35.1 °F 89% 30.35 in 10.0 mi NNE 11.5 mph - N/A   Overcast
5:33 PM 37.4 °F 29.8 °F 35.6 °F 93% 30.34 in 10.0 mi North 11.5 mph - N/A   Overcast
5:51 PM 37.0 °F 28.9 °F 34.0 °F 89% 30.35 in 10.0 mi NNE 12.7 mph - N/A   Overcast
6:51 PM 36.0 °F 27.1 °F 33.1 °F 89% 30.36 in 10.0 mi NE 13.8 mph 20.7 mph 0.00 in   Overcast
6:58 PM 35.6 °F 27.1 °F 33.8 °F 93% 30.35 in 10.0 mi NE 12.7 mph 19.6 mph N/A   Overcast
7:19 PM 35.6 °F 28.0 °F 33.8 °F 93% 30.33 in 7.0 mi NE 10.4 mph - N/A   Overcast
7:49 PM 35.6 °F 27.1 °F 33.8 °F 93% 30.34 in 7.0 mi NNE 12.7 mph - N/A   Overcast
7:51 PM 36.0 °F 27.5 °F 34.0 °F 93% 30.35 in 7.0 mi NNE 12.7 mph - N/A   Overcast
8:34 PM 35.6 °F 28.6 °F 33.8 °F 93% 30.35 in 10.0 mi NNE 9.2 mph - N/A   Overcast
8:51 PM 36.0 °F 29.0 °F 34.0 °F 93% 30.36 in 10.0 mi NE 9.2 mph - N/A   Overcast
9:16 PM 35.6 °F 29.2 °F 33.8 °F 93% 30.34 in 10.0 mi NNE 8.1 mph - N/A   Overcast
9:51 PM 36.0 °F 29.6 °F 34.0 °F 93% 30.34 in 6.0 mi NNE 8.1 mph - 0.00 in Rain Light Rain
10:34 PM 35.6 °F 31.7 °F 35.6 °F 100% 30.35 in 3.0 mi North 4.6 mph - 0.00 in   Overcast
10:51 PM 35.1 °F 29.3 °F 35.1 °F 100% 30.35 in 4.0 mi NE 6.9 mph - 0.00 in   Overcast
11:10 PM 35.6 °F 29.2 °F 35.6 °F 100% 30.32 in 3.0 mi ENE 8.1 mph - 0.02 in Rain Heavy Rain
11:25 PM 35.6 °F 29.2 °F 35.6 °F 100% 30.31 in 2.5 mi ENE 8.1 mph - 0.08 in Rain Heavy Rain
11:32 PM 35.6 °F 31.7 °F 35.6 °F 100% 30.31 in 2.0 mi NE 4.6 mph - 0.11 in Rain Heavy Rain
11:48 PM 35.6 °F 30.7 °F 35.6 °F 100% 30.31 in 3.0 mi NE 5.8 mph - 0.17 in Rain Rain
11:51 PM 35.1 °F 29.3 °F 35.1 °F 100% 30.32 in 4.0 mi NE 6.9 mph - 0.18 in Rain Rain